SCP
0 0 0 0 0 0 0 0 0 0 0 0 0 0 0 0 0 0 0 0 0 0 -0 -0 -0 -0 -0 -0 -0 -0 -0 -0 -0 -0 -0 -0 -0 -0 -0 -0 -0 -0 -0
0 0 0 0 0 0 0 0 0 0 0 0 0 -0 -0 0 0 0 0 0 0 -0 -0 -0 -0 -0 -0 -0 -0 -0 -0 -0 -0 -0 -0 -0 -0 -0 -0 -0 -0 -0 -0
0 0 0 0 0 0 0 0 0 0 0 0 0 0 0 0 0 0 0 0 0 0 -0 -0 -0 -0 -0 -0 0 -0 -0 0 0 0 0 -0 -0 -0 -0 -0 -0 -0 -0
0 0 0 0 0 0 0 0 0 0 0 0 0 0 0 0 0 -0 -0 0 0 0 0 -0 0 0 0 0 0 0 0 0 0 0 0 0 -0 -0 -0 -0 -0 -0 -0
1 0 0 0 0 0 0 0 0 0 0 0 0 -0 0 -0 0 -0 -0 0 0 0 0 0 0 0 0 0 0 0 0 0 0 0 0 0 -0 -0 -0 -0 -0 -0 -0
0 0 0 0 0 0 0 0 0 0 0 0 0 0 0 -0 -0 -0 0 0 0 0 0 0 0 0 0 0 0 0 0 0 0 0 0 -0 0 -0 -0 -0 -0 -0 -0
0 0 0 0 0 0 0 0 0 0 0 0 0 0 0 0 0 0 0 0 0 0 0 0 0 0 0 0 0 0 0 0 0 0 0 0 0 -0 -0 -0 -0 -0 -0
0 0 0 0 0 0 0 0 0 0 0 0 0 0 0 0 0 0 0 0 0 0 0 0 0 0 0 0 0 0 0 0 0 0 0 0 -0 -0 -0 -0 -0 -0 -0
0 0 0 0 0 0 0 0 0 0 0 0 0 0 0 0 0 0 0 0 0 0 0 0 0 0 0 0 0 0 -0 0 0 -0 0 0 0 -0 -0 -0 -0 -0 -0
0 0 0 0 0 0 0 0 0 0 0 0 0 0 0 0 0 0 0 0 0 0 0 0 0 0 0 0 0 0 -0 -0 0 0 0 0 0 -0 -0 -0 -0 -0 -0
0 0 0 0 0 0 0 0 0 0 0 0 0 0 0 0 0 0 0 0 0 0 0 0 0 0 0 0 0 0 0 -0 0 0 0 0 0 -0 -0 -0 -0 -0 -0
0 0 0 0 0 0 0 0 0 0 0 0 0 0 0 0 0 0 0 0 0 0 0 0 0 0 0 0 0 0 0 -0 0 0 0 0 0 0 0 -0 -0 -0 -0
0 0 0 0 0 0 0 0 0 0 0 0 0 0 0 0 0 0 0 0 0 0 0 0 0 0 0 0 0 0 -0 0 0 0 0 -0 0 0 0 0 0 0 -0
0 0 0 0 0 0 0 0 0 0 0 0 0 0 1 0 0 0 0 0 0 0 0 0 0 0 0 0 0 0 0 0 0 0 0 0 0 0 0 0 0 0 0
0 0 0 0 0 0 0 0 0 0 0 0 0 0 0 0 0 0 0 0 0 0 0 0 0 0 0 0 0 0 0 0 0 0 0 0 0 0 0 0 0 0 0
0 0 0 0 0 0 0 0 0 0 0 0 0 0 0 0 0 0 0 0 0 0 0 0 0 0 0 0 0 0 0 0 0 0 0 0 0 0 0 0 0 0 0
0 0 0 0 0 0 0 0 0 0 0 0 0 0 0 0 0 0 0 0 0 0 0 0 0 0 0 0 0 0 0 0 0 0 0 0 0 0 0 0 0 0 0
0 0 0 0 0 0 0 0 0 0 0 0 0 0 0 0 0 0 0 0 0 0 0 0 0 0 0 0 0 0 0 0 0 0 0 0 0 0 0 0 0 0 -0
0 0 0 0 0 0 0 0 0 0 0 0 0 0 0 0 0 0 0 0 0 0 0 0 0 0 0 0 0 0 0 0 0 0 0 0 0 0 0 0 0 0 0
0 0 0 0 0 0 0 0 0 0 0 0 0 0 0 0 0 0 0 0 0 0 0 0 0 0 0 0 0 0 0 0 0 0 0 0 0 0 0 0 0 0 0
0 0 0 0 0 0 0 0 0 0 0 0 0 0 0 0 0 0 0 0 0 0 0 0 0 0 0 0 0 0 0 0 0 0 0 0 0 0 0 0 0 0 0
0 0 0 0 0 0 0 0 0 0 0 0 0 0 0 0 0 0 0 0 0 0 0 0 0 0 0 0 0 0 0 0 0 0 0 0 0 0 0 0 0 0 0
0 0 0 0 0 0 0 0 0 0 0 0 0 0 0 0 0 0 0 0 0 0 0 0 0 0 0 0 0 0 0 0 0 0 0 0 0 0 0 0 0 0 0
0 0 0 0 0 0 0 0 0 0 0 0 0 0 0 0 0 0 0 0 0 0 0 0 0 0 0 0 0 0 0 0 0 0 0 0 0 0 0 0 0 0 0
0 0 0 0 0 0 0 0 0 0 0 0 0 0 0 0 0 0 0 0 0 0 0 0 0 0 0 0 0 0 0 0 0 0 0 0 0 0 0 0 0 0 0
0 0 0 0 0 0 0 0 0 0 0 0 0 0 0 0 0 0 0 0 0 0 0 0 0 0 0 0 0 0 0 0 0 0 0 0 0 0 0 0 0 0 0
Wind_Speed_500mb
10 5 11 14 11 17 22 18 15 14 11 12 11 12 11 11 11 13 14 15 15 17 17 17 14 10 14 13 16 16 16 17 17 19 22 19 24 23 22 25 23 29 29
2 11 11 18 14 10 17 21 19 15 15 10 12 11 11 8 10 11 13 15 18 15 10 8 7 10 12 13 16 14 13 13 15 17 16 17 18 19 14 14 20 25 28
1 17 14 19 16 12 8 15 18 17 11 11 13 11 10 8 8 8 10 16 16 12 8 8 8 9 10 9 9 11 15 19 24 22 18 12 15 20 17 14 16 20 22
1 13 9 13 19 15 10 8 13 15 14 13 10 11 11 10 10 9 10 15 17 9 12 14 9 9 12 9 8 11 15 21 26 24 15 6 3 13 18 22 23 22 20
14 18 17 12 10 13 13 13 14 17 16 21 18 15 13 12 12 11 13 16 14 13 17 16 7 8 8 7 7 12 16 22 26 19 20 8 5 7 11 11 10 13 13
20 10 13 16 14 15 14 15 17 14 19 19 24 19 17 16 16 14 14 17 14 16 22 17 6 3 2 4 7 10 15 23 20 15 10 6 4 5 13 8 9 7 6
8 9 7 8 14 17 16 18 20 21 21 19 26 24 22 20 17 18 19 20 18 16 24 19 12 7 5 6 9 10 15 23 22 13 8 4 6 9 12 10 17 20 18
5 7 8 2 3 12 20 22 21 21 23 25 22 28 29 27 24 23 21 23 20 19 20 20 18 15 10 9 11 12 16 21 19 13 7 4 11 14 17 18 14 14 16
13 13 11 16 10 10 5 11 22 23 22 26 28 31 33 31 28 27 24 25 26 25 22 21 22 17 14 14 15 15 19 23 19 12 7 12 12 24 19 15 10 11 16
20 24 26 26 25 23 18 16 15 22 27 28 35 34 36 35 33 32 29 28 31 30 28 28 26 20 19 18 19 18 21 31 21 19 21 12 9 28 25 19 13 9 10
9 10 25 21 21 25 25 22 23 18 22 30 32 37 39 39 38 37 36 33 37 33 29 28 28 23 21 21 21 22 26 35 23 17 19 19 14 32 27 18 13 12 8
22 16 25 26 23 22 19 20 23 20 20 24 32 37 39 39 41 37 38 40 40 39 33 31 27 25 22 22 22 26 31 39 21 26 23 21 20 39 26 15 10 9 5
17 18 19 23 29 28 23 21 24 18 13 21 27 33 39 38 41 44 43 41 44 47 46 42 32 26 22 21 17 27 33 32 20 28 27 23 25 45 30 19 9 10 5
13 14 14 14 14 20 25 23 20 18 19 20 20 20 24 33 42 44 47 48 47 56 53 51 40 30 24 21 15 27 35 27 28 28 27 19 51 42 32 20 13 10 5
10 12 16 17 13 10 17 20 20 19 21 24 22 23 31 38 35 38 46 47 53 60 63 58 43 26 34 35 26 37 26 29 34 29 25 23 31 35 27 20 16 11 5
5 10 14 18 18 13 9 14 20 24 25 25 32 33 26 29 42 43 41 43 49 62 75 62 46 32 31 35 33 29 31 34 36 29 34 32 32 31 29 19 14 10 7
5 11 13 17 19 18 13 12 16 19 22 25 28 30 33 42 49 54 48 43 42 50 62 56 42 46 37 35 36 36 42 40 38 33 32 31 42 37 27 23 19 15 7
5 9 12 15 17 19 20 21 23 24 26 29 32 33 33 38 46 48 46 47 44 40 57 42 61 56 51 53 38 41 42 45 45 43 38 41 44 39 28 22 20 18 13
3 9 13 19 23 30 34 40 44 42 38 35 36 39 40 43 49 50 41 38 42 42 39 56 69 67 63 50 56 48 42 31 34 39 43 43 46 34 31 25 25 17 17
5 12 19 26 32 40 47 54 56 55 53 52 48 45 42 46 52 50 44 38 35 37 41 55 63 65 58 60 62 61 55 48 37 38 42 46 40 39 30 30 26 17 19
15 22 29 38 44 55 65 62 56 52 46 43 47 51 50 50 54 52 54 46 39 43 54 55 69 51 59 69 71 62 46 39 37 46 50 41 39 38 30 30 31 31 32
28 37 44 50 60 65 62 56 52 53 54 53 52 55 42 47 54 59 60 55 46 49 53 55 61 61 69 73 75 68 42 43 40 48 49 44 48 42 35 30 31 29 29
39 45 55 66 71 66 61 55 51 51 53 52 48 46 53 47 52 57 63 59 56 55 61 59 64 72 73 80 76 50 37 22 58 50 48 42 39 37 36 38 35 37 34
42 45 55 66 72 68 56 49 49 47 47 49 44 40 37 48 54 55 63 63 62 61 64 63 71 71 80 83 80 54 50 36 53 36 50 48 43 42 39 43 44 48 41
44 48 58 60 61 54 51 47 46 47 45 43 45 46 47 49 51 58 51 62 66 61 66 61 65 66 74 89 95 78 53 26 53 46 51 56 50 44 45 40 45 49 45
49 52 52 58 56 49 40 36 41 45 47 48 47 49 53 53 53 55 57 59 67 61 65 71 68 66 72 80 89 81 61 55 46 46 39 63 58 45 44 54 59 52 46
Wind_Direction_500mb
160 236 238 206 198 171 154 152 154 151 147 148 145 138 135 138 139 142 147 146 145 133 126 118 115 102 97 105 114 113 107 109 99 91 94 102 107 104 109 105 109 106 111
41 209 259 198 204 211 168 164 172 167 170 159 160 159 151 152 153 155 160 157 156 148 149 139 124 94 118 124 115 110 109 105 93 92 92 94 109 115 119 128 119 112 108
12 198 239 208 191 189 196 188 187 176 179 191 198 190 184 186 176 172 179 179 174 181 192 180 147 130 121 130 130 121 116 108 96 89 64 51 108 100 113 120 138 134 125
141 158 251 199 196 198 216 220 197 190 188 194 193 200 197 202 191 186 181 174 173 204 192 168 146 123 111 129 143 135 129 120 114 91 98 73 8 121 106 108 113 114 116
123 175 176 223 204 196 203 211 244 197 209 206 203 213 209 211 215 209 205 191 200 194 193 170 134 115 108 140 156 139 124 125 129 119 125 136 310 115 130 163 134 113 113
76 123 194 206 223 222 223 209 225 223 225 216 205 223 229 229 225 224 210 212 231 221 203 197 182 126 80 175 171 159 142 137 130 146 159 175 235 20 123 130 138 136 128
62 93 98 196 220 234 241 240 234 237 240 234 215 219 235 238 236 233 227 234 233 224 207 215 220 255 289 223 194 179 156 150 161 155 163 191 206 248 159 152 126 119 111
14 36 358 51 195 245 251 249 237 253 220 251 233 227 238 244 243 239 242 239 224 219 215 232 240 257 269 241 217 191 171 165 155 161 118 202 277 184 161 154 158 155 139
295 297 292 292 298 292 286 260 247 242 234 229 248 240 237 243 242 237 244 236 226 221 220 234 243 254 260 244 228 209 181 168 156 159 197 244 249 164 157 159 177 191 181
295 291 283 277 281 278 275 276 261 246 243 235 237 244 244 245 243 242 241 238 229 228 228 235 247 255 255 241 228 216 188 168 171 169 204 233 218 166 153 140 127 132 172
290 318 296 296 286 279 270 264 270 272 262 249 243 242 246 247 245 248 243 239 235 235 231 234 247 250 250 238 225 210 189 165 174 180 220 228 226 173 166 140 107 77 75
304 273 269 289 290 288 286 265 261 253 274 270 253 249 247 247 247 250 245 242 238 240 234 242 242 246 238 230 219 205 183 162 171 199 225 233 211 178 175 149 110 66 63
300 303 301 290 278 276 272 266 270 254 239 279 281 259 254 253 246 243 244 242 238 236 241 246 250 244 229 221 210 200 176 165 180 220 238 238 216 179 178 161 129 72 60
357 357 348 333 308 278 267 273 274 250 222 241 274 296 278 262 251 245 246 244 239 237 239 249 246 240 208 174 235 188 162 178 200 217 242 253 161 175 171 163 133 90 73
354 15 14 5 353 312 274 270 278 276 253 243 261 265 273 276 263 249 246 250 247 244 240 240 246 225 191 173 209 163 175 196 199 213 229 228 187 182 175 161 133 108 86
18 42 39 31 24 13 334 285 282 282 277 264 245 239 244 271 277 264 253 248 248 247 230 227 225 202 197 185 183 185 196 198 205 203 216 223 196 186 183 180 159 120 88
63 60 45 40 34 28 13 334 312 301 283 277 278 273 266 255 262 269 265 257 253 253 242 233 198 189 181 180 185 194 196 196 197 204 216 207 205 172 177 169 154 139 110
78 11 11 6 2 358 347 338 326 310 295 285 278 276 272 261 268 274 279 267 255 246 224 255 207 219 181 179 182 203 201 204 208 209 212 187 169 165 165 169 160 153 145
267 328 326 330 331 325 317 312 310 304 295 289 283 276 273 260 266 271 274 272 265 245 244 220 208 204 191 195 186 209 213 211 213 219 207 200 189 178 172 174 173 169 166
255 282 309 312 310 311 310 309 302 293 290 288 282 278 270 261 267 274 269 268 261 233 229 220 212 211 226 202 196 197 202 213 218 200 201 195 189 183 187 184 194 192 186
298 295 300 295 299 304 307 304 296 289 280 271 282 285 271 252 256 260 265 259 251 231 228 229 223 226 192 195 187 185 184 198 195 195 203 202 199 191 198 197 201 195 193
303 293 287 292 301 303 304 299 294 289 284 278 268 261 268 259 244 253 256 251 236 227 226 230 230 212 195 199 197 179 156 164 185 200 207 196 196 197 187 194 211 223 236
299 301 292 299 304 307 303 297 293 292 291 291 285 269 257 261 254 241 247 247 239 228 229 229 223 224 209 201 200 188 163 175 178 191 203 199 196 204 200 194 217 238 238
301 299 292 296 302 303 302 294 292 289 285 288 282 271 273 259 262 256 245 245 238 223 228 226 227 228 216 205 201 196 198 202 182 171 189 196 208 212 211 214 223 236 236
307 300 302 309 311 301 298 291 295 289 285 297 286 275 267 256 262 259 254 238 233 228 222 226 226 217 223 215 206 200 207 194 200 188 186 195 201 214 231 232 236 236 239
311 308 313 311 312 306 301 294 289 287 287 292 288 282 271 259 250 259 251 239 235 230 224 217 230 231 225 224 219 211 203 202 193 200 205 203 204 203 219 231 235 233 237
Wind_Speed_850mb
10 5 11 14 11 17 22 18 15 14 11 12 11 12 11 11 11 13 14 15 15 17 17 17 14 10 14 13 16 16 16 17 17 19 22 19 24 23 22 25 23 29 29
2 11 11 18 14 10 17 21 19 15 15 10 12 11 11 8 10 11 13 15 18 15 10 8 7 10 12 13 16 14 13 13 15 17 16 17 18 19 14 14 20 25 28
1 17 14 19 16 12 8 15 18 17 11 11 13 11 10 8 8 8 10 16 16 12 8 8 8 9 10 9 9 11 15 19 24 22 18 12 15 20 17 14 16 20 22
1 13 9 13 19 15 10 8 13 15 14 13 10 11 11 10 10 9 10 15 17 9 12 14 9 9 12 9 8 11 15 21 26 24 15 6 3 13 18 22 23 22 20
14 18 17 12 10 13 13 13 14 17 16 21 18 15 13 12 12 11 13 16 14 13 17 16 7 8 8 7 7 12 16 22 26 19 20 8 5 7 11 11 10 13 13
20 10 13 16 14 15 14 15 17 14 19 19 24 19 17 16 16 14 14 17 14 16 22 17 6 3 2 4 7 10 15 23 20 15 10 6 4 5 13 8 9 7 6
8 9 7 8 14 17 16 18 20 21 21 19 26 24 22 20 17 18 19 20 18 16 24 19 12 7 5 6 9 10 15 23 22 13 8 4 6 9 12 10 17 20 18
5 7 8 2 3 12 20 22 21 21 23 25 22 28 29 27 24 23 21 23 20 19 20 20 18 15 10 9 11 12 16 21 19 13 7 4 11 14 17 18 14 14 16
13 13 11 16 10 10 5 11 22 23 22 26 28 31 33 31 28 27 24 25 26 25 22 21 22 17 14 14 15 15 19 23 19 12 7 12 12 24 19 15 10 11 16
20 24 26 26 25 23 18 16 15 22 27 28 35 34 36 35 33 32 29 28 31 30 28 28 26 20 19 18 19 18 21 31 21 19 21 12 9 28 25 19 13 9 10
9 10 25 21 21 25 25 22 23 18 22 30 32 37 39 39 38 37 36 33 37 33 29 28 28 23 21 21 21 22 26 35 23 17 19 19 14 32 27 18 13 12 8
22 16 25 26 23 22 19 20 23 20 20 24 32 37 39 39 41 37 38 40 40 39 33 31 27 25 22 22 22 26 31 39 21 26 23 21 20 39 26 15 10 9 5
17 18 19 23 29 28 23 21 24 18 13 21 27 33 39 38 41 44 43 41 44 47 46 42 32 26 22 21 17 27 33 32 20 28 27 23 25 45 30 19 9 10 5
13 14 14 14 14 20 25 23 20 18 19 20 20 20 24 33 42 44 47 48 47 56 53 51 40 30 24 21 15 27 35 27 28 28 27 19 51 42 32 20 13 10 5
10 12 16 17 13 10 17 20 20 19 21 24 22 23 31 38 35 38 46 47 53 60 63 58 43 26 34 35 26 37 26 29 34 29 25 23 31 35 27 20 16 11 5
5 10 14 18 18 13 9 14 20 24 25 25 32 33 26 29 42 43 41 43 49 62 75 62 46 32 31 35 33 29 31 34 36 29 34 32 32 31 29 19 14 10 7
5 11 13 17 19 18 13 12 16 19 22 25 28 30 33 42 49 54 48 43 42 50 62 56 42 46 37 35 36 36 42 40 38 33 32 31 42 37 27 23 19 15 7
5 9 12 15 17 19 20 21 23 24 26 29 32 33 33 38 46 48 46 47 44 40 57 42 61 56 51 53 38 41 42 45 45 43 38 41 44 39 28 22 20 18 13
3 9 13 19 23 30 34 40 44 42 38 35 36 39 40 43 49 50 41 38 42 42 39 56 69 67 63 50 56 48 42 31 34 39 43 43 46 34 31 25 25 17 17
5 12 19 26 32 40 47 54 56 55 53 52 48 45 42 46 52 50 44 38 35 37 41 55 63 65 58 60 62 61 55 48 37 38 42 46 40 39 30 30 26 17 19
15 22 29 38 44 55 65 62 56 52 46 43 47 51 50 50 54 52 54 46 39 43 54 55 69 51 59 69 71 62 46 39 37 46 50 41 39 38 30 30 31 31 32
28 37 44 50 60 65 62 56 52 53 54 53 52 55 42 47 54 59 60 55 46 49 53 55 61 61 69 73 75 68 42 43 40 48 49 44 48 42 35 30 31 29 29
39 45 55 66 71 66 61 55 51 51 53 52 48 46 53 47 52 57 63 59 56 55 61 59 64 72 73 80 76 50 37 22 58 50 48 42 39 37 36 38 35 37 34
42 45 55 66 72 68 56 49 49 47 47 49 44 40 37 48 54 55 63 63 62 61 64 63 71 71 80 83 80 54 50 36 53 36 50 48 43 42 39 43 44 48 41
44 48 58 60 61 54 51 47 46 47 45 43 45 46 47 49 51 58 51 62 66 61 66 61 65 66 74 89 95 78 53 26 53 46 51 56 50 44 45 40 45 49 45
49 52 52 58 56 49 40 36 41 45 47 48 47 49 53 53 53 55 57 59 67 61 65 71 68 66 72 80 89 81 61 55 46 46 39 63 58 45 44 54 59 52 46
Wind_Direction_850mb
160 236 238 206 198 171 154 152 154 151 147 148 145 138 135 138 139 142 147 146 145 133 126 118 115 102 97 105 114 113 107 109 99 91 94 102 107 104 109 105 109 106 111
41 209 259 198 204 211 168 164 172 167 170 159 160 159 151 152 153 155 160 157 156 148 149 139 124 94 118 124 115 110 109 105 93 92 92 94 109 115 119 128 119 112 108
12 198 239 208 191 189 196 188 187 176 179 191 198 190 184 186 176 172 179 179 174 181 192 180 147 130 121 130 130 121 116 108 96 89 64 51 108 100 113 120 138 134 125
141 158 251 199 196 198 216 220 197 190 188 194 193 200 197 202 191 186 181 174 173 204 192 168 146 123 111 129 143 135 129 120 114 91 98 73 8 121 106 108 113 114 116
123 175 176 223 204 196 203 211 244 197 209 206 203 213 209 211 215 209 205 191 200 194 193 170 134 115 108 140 156 139 124 125 129 119 125 136 310 115 130 163 134 113 113
76 123 194 206 223 222 223 209 225 223 225 216 205 223 229 229 225 224 210 212 231 221 203 197 182 126 80 175 171 159 142 137 130 146 159 175 235 20 123 130 138 136 128
62 93 98 196 220 234 241 240 234 237 240 234 215 219 235 238 236 233 227 234 233 224 207 215 220 255 289 223 194 179 156 150 161 155 163 191 206 248 159 152 126 119 111
14 36 358 51 195 245 251 249 237 253 220 251 233 227 238 244 243 239 242 239 224 219 215 232 240 257 269 241 217 191 171 165 155 161 118 202 277 184 161 154 158 155 139
295 297 292 292 298 292 286 260 247 242 234 229 248 240 237 243 242 237 244 236 226 221 220 234 243 254 260 244 228 209 181 168 156 159 197 244 249 164 157 159 177 191 181
295 291 283 277 281 278 275 276 261 246 243 235 237 244 244 245 243 242 241 238 229 228 228 235 247 255 255 241 228 216 188 168 171 169 204 233 218 166 153 140 127 132 172
290 318 296 296 286 279 270 264 270 272 262 249 243 242 246 247 245 248 243 239 235 235 231 234 247 250 250 238 225 210 189 165 174 180 220 228 226 173 166 140 107 77 75
304 273 269 289 290 288 286 265 261 253 274 270 253 249 247 247 247 250 245 242 238 240 234 242 242 246 238 230 219 205 183 162 171 199 225 233 211 178 175 149 110 66 63
300 303 301 290 278 276 272 266 270 254 239 279 281 259 254 253 246 243 244 242 238 236 241 246 250 244 229 221 210 200 176 165 180 220 238 238 216 179 178 161 129 72 60
357 357 348 333 308 278 267 273 274 250 222 241 274 296 278 262 251 245 246 244 239 237 239 249 246 240 208 174 235 188 162 178 200 217 242 253 161 175 171 163 133 90 73
354 15 14 5 353 312 274 270 278 276 253 243 261 265 273 276 263 249 246 250 247 244 240 240 246 225 191 173 209 163 175 196 199 213 229 228 187 182 175 161 133 108 86
18 42 39 31 24 13 334 285 282 282 277 264 245 239 244 271 277 264 253 248 248 247 230 227 225 202 197 185 183 185 196 198 205 203 216 223 196 186 183 180 159 120 88
63 60 45 40 34 28 13 334 312 301 283 277 278 273 266 255 262 269 265 257 253 253 242 233 198 189 181 180 185 194 196 196 197 204 216 207 205 172 177 169 154 139 110
78 11 11 6 2 358 347 338 326 310 295 285 278 276 272 261 268 274 279 267 255 246 224 255 207 219 181 179 182 203 201 204 208 209 212 187 169 165 165 169 160 153 145
267 328 326 330 331 325 317 312 310 304 295 289 283 276 273 260 266 271 274 272 265 245 244 220 208 204 191 195 186 209 213 211 213 219 207 200 189 178 172 174 173 169 166
255 282 309 312 310 311 310 309 302 293 290 288 282 278 270 261 267 274 269 268 261 233 229 220 212 211 226 202 196 197 202 213 218 200 201 195 189 183 187 184 194 192 186
298 295 300 295 299 304 307 304 296 289 280 271 282 285 271 252 256 260 265 259 251 231 228 229 223 226 192 195 187 185 184 198 195 195 203 202 199 191 198 197 201 195 193
303 293 287 292 301 303 304 299 294 289 284 278 268 261 268 259 244 253 256 251 236 227 226 230 230 212 195 199 197 179 156 164 185 200 207 196 196 197 187 194 211 223 236
299 301 292 299 304 307 303 297 293 292 291 291 285 269 257 261 254 241 247 247 239 228 229 229 223 224 209 201 200 188 163 175 178 191 203 199 196 204 200 194 217 238 238
301 299 292 296 302 303 302 294 292 289 285 288 282 271 273 259 262 256 245 245 238 223 228 226 227 228 216 205 201 196 198 202 182 171 189 196 208 212 211 214 223 236 236
307 300 302 309 311 301 298 291 295 289 285 297 286 275 267 256 262 259 254 238 233 228 222 226 226 217 223 215 206 200 207 194 200 188 186 195 201 214 231 232 236 236 239
311 308 313 311 312 306 301 294 289 287 287 292 288 282 271 259 250 259 251 239 235 230 224 217 230 231 225 224 219 211 203 202 193 200 205 203 204 203 219 231 235 233 237